| time (UTC) | temp F | wind direction | speed MPH | gust MPH | rain 1hr in | rain 24hr in | rain mn in | humidity % | barometer mb |
| 20260510011137 | 84 | 135 | 3.0 | 7.0 | 0.00 | 0.00 | 0.00 | 66 | 1011.6 |
| 20260510010633 | 84 | 132 | 4.0 | 7.0 | 0.00 | 0.00 | 0.00 | 65 | 1011.6 |
| 20260510010130 | 84 | 209 | 1.0 | 6.0 | 0.00 | 0.00 | 0.00 | 65 | 1011.2 |
| 20260510005625 | 85 | 121 | 4.0 | 7.0 | 0.00 | 0.00 | 0.00 | 62 | 1011.1 |
| 20260510005123 | 85 | 130 | 4.0 | 7.0 | 0.00 | 0.00 | 0.00 | 61 | 1011.2 |
| 20260510004621 | 85 | 61 | 3.0 | 7.0 | 0.00 | 0.00 | 0.00 | 60 | 1011.3 |
| 20260510004119 | 85 | 90 | 2.0 | 7.0 | 0.00 | 0.00 | 0.00 | 61 | 1011.5 |
| 20260510003616 | 85 | 115 | 9.0 | 9.0 | 0.00 | 0.00 | 0.00 | 60 | 1011.0 |
| 20260510003112 | 85 | 144 | 5.0 | 9.0 | 0.00 | 0.00 | 0.00 | 59 | 1011.1 |
| 20260510002606 | 85 | 119 | 9.0 | 9.0 | 0.00 | 0.00 | 0.00 | 61 | 1011.1 |
| 20260510002103 | 86 | 172 | 1.0 | 9.0 | 0.00 | 0.00 | 0.00 | 60 | 1011.1 |
| 20260510001601 | 86 | 153 | 4.0 | 8.0 | 0.00 | 0.00 | 0.00 | 59 | 1010.8 |
| 20260510001100 | 86 | 111 | 3.0 | 8.0 | 0.00 | 0.00 | 0.00 | 57 | 1011.1 |
| 20260510000559 | 86 | 125 | 6.0 | 9.0 | 0.00 | 0.00 | 0.00 | 56 | 1011.1 |
| 20260510000056 | 86 | 94 | 5.0 | 9.0 | 0.00 | 0.00 | 0.00 | 55 | 1010.7 |
| 20260509235553 | 87 | 112 | 4.0 | 9.0 | 0.00 | 0.00 | 0.00 | 53 | 1010.8 |
| 20260509235050 | 87 | 147 | 5.0 | 6.0 | 0.00 | 0.00 | 0.00 | 52 | 1010.7 |
| 20260509234546 | 86 | 102 | 3.0 | 7.0 | 0.00 | 0.00 | 0.00 | 52 | 1010.6 |
| 20260509234044 | 86 | 132 | 5.0 | 6.0 | 0.00 | 0.00 | 0.00 | 53 | 1010.7 |
| 20260509233541 | 87 | 118 | 6.0 | 9.0 | 0.00 | 0.00 | 0.00 | 52 | 1010.8 |
| 20260509233038 | 87 | 140 | 3.0 | 8.0 | 0.00 | 0.00 | 0.00 | 51 | 1010.8 |
| 20260509232535 | 87 | 94 | 6.0 | 8.0 | 0.00 | 0.00 | 0.00 | 51 | 1010.5 |
| 20260509232031 | 87 | 132 | 6.0 | 7.0 | 0.00 | 0.00 | 0.00 | 51 | 1010.3 |
| 20260509231528 | 87 | 111 | 6.0 | 7.0 | 0.00 | 0.00 | 0.00 | 51 | 1010.6 |
| 20260509231026 | 89 | 155 | 5.0 | 9.0 | 0.00 | 0.00 | 0.00 | 52 | 1010.7 |
| 20260509230522 | 89 | 75 | 2.0 | 6.0 | 0.00 | 0.00 | 0.00 | 51 | 1010.7 |
| 20260509230019 | 89 | 114 | 3.0 | 5.0 | 0.00 | 0.00 | 0.00 | 51 | 1010.4 |
| 20260509225514 | 87 | 88 | 7.0 | 12.0 | 0.00 | 0.00 | 0.00 | 53 | 1010.5 |
| 20260509225010 | 87 | 125 | 5.0 | 9.0 | 0.00 | 0.00 | 0.00 | 53 | 1010.6 |
| 20260509224507 | 87 | 153 | 6.0 | 11.0 | 0.00 | 0.00 | 0.00 | 52 | 1010.4 |
| 20260509224003 | 87 | 105 | 3.0 | 7.0 | 0.00 | 0.00 | 0.00 | 54 | 1010.6 |
| 20260509223500 | 87 | 105 | 3.0 | 7.0 | 0.00 | 0.00 | 0.00 | 57 | 1010.7 |
| 20260509222957 | 88 | 121 | 3.0 | 6.0 | 0.00 | 0.00 | 0.00 | 56 | 1010.6 |
| 20260509222453 | 87 | 97 | 3.0 | 10.0 | 0.00 | 0.00 | 0.00 | 56 | 1010.6 |
| 20260509221949 | 87 | 135 | 9.0 | 9.0 | 0.00 | 0.00 | 0.00 | 54 | 1010.6 |
| 20260509221445 | 87 | 108 | 4.0 | 9.0 | 0.00 | 0.00 | 0.00 | 55 | 1010.6 |
| 20260509220941 | 87 | 131 | 5.0 | 7.0 | 0.00 | 0.00 | 0.00 | 55 | 1010.5 |
| 20260509220437 | 86 | 115 | 6.0 | 10.0 | 0.00 | 0.00 | 0.00 | 54 | 1010.5 |
| 20260509215934 | 87 | 113 | 8.0 | 9.0 | 0.00 | 0.00 | 0.00 | 56 | 1010.8 |
| 20260509215429 | 87 | 147 | 6.0 | 8.0 | 0.00 | 0.00 | 0.00 | 57 | 1010.6 |
| 20260509214927 | 87 | 155 | 4.0 | 10.0 | 0.00 | 0.00 | 0.00 | 55 | 1010.6 |
| 20260509214424 | 88 | 160 | 3.0 | 9.0 | 0.00 | 0.00 | 0.00 | 55 | 1010.7 |
| 20260509213921 | 91 | 99 | 2.0 | 12.0 | 0.00 | 0.00 | 0.00 | 47 | 1010.6 |
| 20260509213416 | 91 | 117 | 10.0 | 10.0 | 0.00 | 0.00 | 0.00 | 48 | 1010.7 |
| 20260509212914 | 93 | 104 | 3.0 | 10.0 | 0.00 | 0.00 | 0.00 | 46 | 1010.8 |
| 20260509212412 | 94 | 127 | 0.0 | 2.0 | 0.00 | 0.00 | 0.00 | 43 | 1010.9 |
| 20260509211908 | 94 | 90 | 0.0 | 2.0 | 0.00 | 0.00 | 0.00 | 44 | 1010.7 |
| 20260509211404 | 93 | 217 | 2.0 | 5.0 | 0.00 | 0.00 | 0.00 | 47 | 1011.0 |
| 20260509210900 | 93 | 206 | 3.0 | 5.0 | 0.00 | 0.00 | 0.00 | 45 | 1011.0 |
| 20260509210357 | 92 | 173 | 1.0 | 5.0 | 0.00 | 0.00 | 0.00 | 45 | 1010.9 |
| 20260509205852 | 93 | 173 | 1.0 | 5.0 | 0.00 | 0.00 | 0.00 | 46 | 1010.9 |
| 20260509205346 | 93 | 226 | 6.0 | 6.0 | 0.00 | 0.00 | 0.00 | 47 | 1011.0 |
| 20260509204843 | 95 | 241 | 2.0 | 4.0 | 0.00 | 0.00 | 0.00 | 45 | 1011.1 |
| 20260509204334 | 94 | 225 | 3.0 | 3.0 | 0.00 | 0.00 | 0.00 | 46 | 1011.3 |
| 20260509203830 | 94 | 270 | 0.0 | 3.0 | 0.00 | 0.00 | 0.00 | 45 | 1011.3 |
| 20260509203327 | 93 | 105 | 2.0 | 2.0 | 0.00 | 0.00 | 0.00 | 47 | 1011.4 |
| 20260509202823 | 93 | 348 | 3.0 | 4.0 | 0.00 | 0.00 | 0.00 | 47 | 1011.6 |
| 20260509202320 | 93 | 264 | 2.0 | 5.0 | 0.00 | 0.00 | 0.00 | 46 | 1011.8 |
| 20260509201819 | 94 | 234 | 4.0 | 4.0 | 0.00 | 0.00 | 0.00 | 48 | 1011.6 |
| 20260509201316 | 95 | 187 | 0.0 | 2.0 | 0.00 | 0.00 | 0.00 | 46 | 1011.8 |
| 20260509200813 | 94 | 180 | 1.0 | 3.0 | 0.00 | 0.00 | 0.00 | 46 | 1012.1 |
| 20260509200308 | 94 | 243 | 3.0 | 5.0 | 0.00 | 0.00 | 0.00 | 48 | 1012.1 |
| 20260509195805 | 93 | 225 | 3.0 | 4.0 | 0.00 | 0.00 | 0.00 | 49 | 1011.9 |
| 20260509195300 | 92 | 256 | 3.0 | 8.0 | 0.00 | 0.00 | 0.00 | 50 | 1012.0 |
| 20260509194759 | 91 | 349 | 4.0 | 7.0 | 0.00 | 0.00 | 0.00 | 49 | 1011.8 |
| 20260509194256 | 90 | 222 | 3.0 | 10.0 | 0.00 | 0.00 | 0.00 | 50 | 1012.0 |
| 20260509193753 | 91 | 0 | 2.0 | 8.0 | 0.00 | 0.00 | 0.00 | 49 | 1011.9 |
| 20260509193253 | 91 | 230 | 7.0 | 7.0 | 0.00 | 0.00 | 0.00 | 53 | 1011.9 |
| 20260509192749 | 90 | 288 | 7.0 | 7.0 | 0.00 | 0.00 | 0.00 | 54 | 1011.9 |
| 20260509192244 | 89 | 243 | 1.0 | 10.0 | 0.00 | 0.00 | 0.00 | 55 | 1012.3 |
| 20260509191739 | 89 | 220 | 5.0 | 11.0 | 0.00 | 0.00 | 0.00 | 56 | 1012.3 |
| 20260509191236 | 89 | 248 | 2.0 | 5.0 | 0.00 | 0.00 | 0.00 | 57 | 1012.5 |
| 20260509190732 | 90 | 180 | 3.0 | 10.0 | 0.00 | 0.00 | 0.00 | 56 | 1012.3 |
| 20260509190229 | 89 | 252 | 4.0 | 8.0 | 0.00 | 0.00 | 0.00 | 56 | 1012.4 |
| 20260509185727 | 91 | 251 | 3.0 | 5.0 | 0.00 | 0.00 | 0.00 | 58 | 1012.8 |
| 20260509185223 | 90 | 206 | 0.0 | 3.0 | 0.00 | 0.00 | 0.00 | 58 | 1012.8 |
| 20260509184721 | 88 | 82 | 0.0 | 7.0 | 0.00 | 0.00 | 0.00 | 62 | 1012.8 |
| 20260509184218 | 88 | 354 | 3.0 | 9.0 | 0.00 | 0.00 | 0.00 | 59 | 1012.9 |
| 20260509183714 | 89 | 281 | 2.0 | 3.0 | 0.00 | 0.00 | 0.00 | 60 | 1013.0 |
| 20260509183209 | 87 | 268 | 5.0 | 8.0 | 0.00 | 0.00 | 0.00 | 60 | 1013.0 |
| 20260509182705 | 88 | 0 | 0.0 | 3.0 | 0.00 | 0.00 | 0.00 | 60 | 1013.0 |
| 20260509182203 | 88 | 195 | 3.0 | 7.0 | 0.00 | 0.00 | 0.00 | 60 | 1013.1 |
| 20260509181700 | 89 | 194 | 3.0 | 5.0 | 0.00 | 0.00 | 0.00 | 60 | 1013.0 |
| 20260509181158 | 87 | 218 | 5.0 | 8.0 | 0.00 | 0.00 | 0.00 | 62 | 1013.4 |
| 20260509180654 | 87 | 221 | 5.0 | 8.0 | 0.00 | 0.00 | 0.00 | 61 | 1013.5 |
| 20260509180150 | 88 | 244 | 4.0 | 4.0 | 0.00 | 0.00 | 0.00 | 61 | 1013.6 |
| 20260509175646 | 87 | 246 | 0.0 | 7.0 | 0.00 | 0.00 | 0.00 | 63 | 1013.5 |
| 20260509175144 | 86 | 277 | 3.0 | 7.0 | 0.00 | 0.00 | 0.00 | 63 | 1013.4 |
| 20260509174639 | 87 | 276 | 5.0 | 9.0 | 0.00 | 0.00 | 0.00 | 62 | 1013.7 |
| 20260509174134 | 88 | 16 | 2.0 | 3.0 | 0.00 | 0.00 | 0.00 | 62 | 1013.6 |
| 20260509173630 | 88 | 220 | 5.0 | 6.0 | 0.00 | 0.00 | 0.00 | 63 | 1013.8 |
| 20260509173126 | 87 | 151 | 1.0 | 4.0 | 0.00 | 0.00 | 0.00 | 65 | 1014.1 |
| 20260509172623 | 87 | 165 | 3.0 | 6.0 | 0.00 | 0.00 | 0.00 | 64 | 1013.8 |
| 20260509172119 | 86 | 247 | 2.0 | 7.0 | 0.00 | 0.00 | 0.00 | 66 | 1013.9 |
| 20260509171615 | 87 | 219 | 3.0 | 7.0 | 0.00 | 0.00 | 0.00 | 63 | 1013.6 |
| 20260509171112 | 87 | 187 | 3.0 | 5.0 | 0.00 | 0.00 | 0.00 | 65 | 1013.9 |
| 20260509170608 | 87 | 243 | 0.0 | 4.0 | 0.00 | 0.00 | 0.00 | 67 | 1013.6 |
| 20260509170104 | 86 | 219 | 3.0 | 8.0 | 0.00 | 0.00 | 0.00 | 65 | 1013.7 |
| 20260509165603 | 86 | 23 | 0.0 | 4.0 | 0.00 | 0.00 | 0.00 | 69 | 1013.8 |
| 20260509165058 | 84 | 157 | 1.0 | 3.0 | 0.00 | 0.00 | 0.00 | 70 | 1013.9 |
| 20260509164554 | 84 | 168 | 0.0 | 4.0 | 0.00 | 0.00 | 0.00 | 73 | 1014.0 |
| 20260509164050 | 83 | 117 | 2.0 | 4.0 | 0.00 | 0.00 | 0.00 | 73 | 1014.0 |
| 20260509163549 | 83 | 176 | 2.0 | 4.0 | 0.00 | 0.00 | 0.00 | 74 | 1014.1 |
| 20260509163044 | 82 | 210 | 3.0 | 3.0 | 0.00 | 0.00 | 0.00 | 76 | 1014.0 |
| 20260509162541 | 81 | 132 | 2.0 | 3.0 | 0.00 | 0.00 | 0.00 | 78 | 1014.0 |
| 20260509162036 | 81 | 203 | 0.0 | 3.0 | 0.00 | 0.00 | 0.00 | 79 | 1013.9 |
| 20260509161533 | 81 | 135 | 4.0 | 4.0 | 0.00 | 0.00 | 0.00 | 81 | 1014.2 |
| 20260509161028 | 79 | 206 | 5.0 | 8.0 | 0.00 | 0.00 | 0.00 | 83 | 1014.2 |
| 20260509160524 | 79 | 184 | 0.0 | 6.0 | 0.00 | 0.00 | 0.00 | 83 | 1014.2 |
| 20260509160020 | 78 | 231 | 2.0 | 7.0 | 0.00 | 0.00 | 0.00 | 85 | 1014.3 |
| 20260509155516 | 78 | 210 | 5.0 | 7.0 | 0.00 | 0.00 | 0.00 | 87 | 1014.3 |
| 20260509155012 | 77 | 202 | 3.0 | 9.0 | 0.00 | 0.00 | 0.00 | 88 | 1014.4 |
| 20260509154509 | 76 | 196 | 3.0 | 10.0 | 0.00 | 0.00 | 0.00 | 89 | 1014.3 |
| 20260509154007 | 76 | 212 | 6.0 | 6.0 | 0.00 | 0.00 | 0.00 | 89 | 1014.2 |
| 20260509153503 | 76 | 198 | 3.0 | 7.0 | 0.00 | 0.00 | 0.00 | 89 | 1014.3 |
| 20260509153000 | 75 | 139 | 2.0 | 10.0 | 0.00 | 0.00 | 0.00 | 89 | 1014.3 |
| 20260509152455 | 76 | 206 | 6.0 | 7.0 | 0.00 | 0.00 | 0.00 | 90 | 1014.2 |
| 20260509151953 | 75 | 162 | 0.0 | 7.0 | 0.00 | 0.00 | 0.00 | 90 | 1014.0 |
| 20260509151449 | 75 | 152 | 5.0 | 7.0 | 0.00 | 0.00 | 0.00 | 90 | 1013.8 |
| 20260509150947 | 75 | 148 | 2.0 | 7.0 | 0.00 | 0.00 | 0.00 | 91 | 1013.9 |
| 20260509150444 | 75 | 180 | 4.0 | 7.0 | 0.00 | 0.00 | 0.00 | 91 | 1014.0 |
| 20260509145943 | 75 | 155 | 3.0 | 4.0 | 0.00 | 0.00 | 0.00 | 91 | 1013.9 |
| 20260509145443 | 75 | 152 | 6.0 | 6.0 | 0.00 | 0.00 | 0.00 | 91 | 1014.0 |
| 20260509144938 | 75 | 128 | 4.0 | 7.0 | 0.00 | 0.00 | 0.00 | 91 | 1013.8 |
| 20260509144436 | 75 | 148 | 7.0 | 9.0 | 0.00 | 0.00 | 0.00 | 91 | 1013.8 |
| 20260509143932 | 75 | 120 | 5.0 | 8.0 | 0.00 | 0.00 | 0.00 | 91 | 1014.1 |
| 20260509143430 | 76 | 119 | 4.0 | 6.0 | 0.00 | 0.00 | 0.00 | 92 | 1014.0 |
| 20260509142926 | 76 | 99 | 5.0 | 7.0 | 0.00 | 0.00 | 0.00 | 92 | 1013.7 |
| 20260509142422 | 77 | 147 | 2.0 | 3.0 | 0.00 | 0.00 | 0.00 | 92 | 1013.6 |
| 20260509141918 | 76 | 116 | 3.0 | 5.0 | 0.00 | 0.00 | 0.00 | 93 | 1013.4 |
| 20260509141415 | 76 | 90 | 0.0 | 2.0 | 0.00 | 0.00 | 0.00 | 94 | 1013.5 |
| 20260509140912 | 75 | 220 | 2.0 | 5.0 | 0.00 | 0.00 | 0.00 | 94 | 1013.1 |
| 20260509140408 | 75 | 204 | 2.0 | 5.0 | 0.00 | 0.00 | 0.00 | 95 | 1013.0 |
| 20260509135907 | 74 | 154 | 3.0 | 5.0 | 0.00 | 0.00 | 0.00 | 95 | 1013.2 |
| 20260509135404 | 75 | 188 | 0.0 | 5.0 | 0.00 | 0.00 | 0.00 | 95 | 1013.0 |
| 20260509134901 | 74 | 203 | 4.0 | 5.0 | 0.00 | 0.00 | 0.00 | 95 | 1012.8 |
| 20260509134358 | 74 | 163 | 0.0 | 5.0 | 0.00 | 0.00 | 0.00 | 95 | 1013.2 |
| 20260509133855 | 73 | 199 | 2.0 | 4.0 | 0.00 | 0.00 | 0.00 | 96 | 1013.2 |
| 20260509133352 | 73 | 133 | 7.0 | 7.0 | 0.00 | 0.00 | 0.00 | 96 | 1013.2 |
| 20260509132851 | 73 | 145 | 5.0 | 8.0 | 0.00 | 0.00 | 0.00 | 96 | 1013.2 |
| 20260509132349 | 73 | 161 | 2.0 | 6.0 | 0.00 | 0.00 | 0.00 | 96 | 1013.5 |
| 20260509131845 | 73 | 186 | 3.0 | 6.0 | 0.00 | 0.00 | 0.00 | 96 | 1013.6 |
| 20260509131342 | 72 | 96 | 3.0 | 4.0 | 0.00 | 0.00 | 0.00 | 96 | 1013.5 |
| 20260509130839 | 72 | 180 | 0.0 | 3.0 | 0.00 | 0.00 | 0.00 | 96 | 1013.7 |
| 20260509130334 | 72 | 160 | 0.0 | 2.0 | 0.00 | 0.00 | 0.00 | 96 | 1013.9 |
| 20260509125831 | 72 | 185 | 1.0 | 3.0 | 0.00 | 0.00 | 0.00 | 96 | 1013.9 |
| 20260509125327 | 72 | 229 | 0.0 | 2.0 | 0.00 | 0.00 | 0.00 | 96 | 1014.0 |
| 20260509124824 | 72 | 0 | 0.0 | 3.0 | 0.00 | 0.00 | 0.00 | 96 | 1013.8 |
| 20260509124321 | 72 | 351 | 2.0 | 4.0 | 0.00 | 0.00 | 0.00 | 96 | 1014.0 |
| 20260509123819 | 72 | 8 | 0.0 | 5.0 | 0.00 | 0.00 | 0.00 | 96 | 1013.9 |
| 20260509123316 | 72 | 286 | 1.0 | 3.0 | 0.00 | 0.00 | 0.00 | 96 | 1013.5 |
| 20260509122811 | 72 | 358 | 3.0 | 3.0 | 0.00 | 0.00 | 0.00 | 96 | 1013.4 |
| 20260509122309 | 72 | 289 | 0.0 | 2.0 | 0.00 | 0.00 | 0.00 | 96 | 1013.6 |
| 20260509121805 | 72 | 240 | 0.0 | 1.0 | 0.00 | 0.00 | 0.00 | 96 | 1013.7 |
| 20260509121303 | 72 | 337 | 2.0 | 3.0 | 0.00 | 0.00 | 0.00 | 96 | 1013.6 |
| 20260509120801 | 72 | 254 | 0.0 | 1.0 | 0.00 | 0.00 | 0.00 | 96 | 1013.5 |
| 20260509120258 | 72 | 355 | 2.0 | 2.0 | 0.00 | 0.00 | 0.00 | 96 | 1013.5 |
| 20260509115756 | 72 | 311 | 0.0 | 2.0 | 0.00 | 0.00 | 0.00 | 96 | 1013.9 |
| 20260509115253 | 72 | 188 | 0.0 | 2.0 | 0.00 | 0.00 | 0.00 | 96 | 1013.8 |
| 20260509114751 | 72 | 172 | 0.0 | 2.0 | 0.00 | 0.00 | 0.00 | 96 | 1014.3 |
| 20260509114249 | 72 | 111 | 0.0 | 0.0 | 0.00 | 0.00 | 0.00 | 96 | 1013.8 |
| 20260509113748 | 72 | 154 | 1.0 | 4.0 | 0.00 | 0.00 | 0.00 | 96 | 1014.0 |
| 20260509113244 | 72 | 83 | 0.0 | 2.0 | 0.00 | 0.00 | 0.00 | 96 | 1013.9 |
| 20260509112741 | 72 | 12 | 0.0 | 2.0 | 0.00 | 0.00 | 0.00 | 96 | 1014.0 |
| 20260509112239 | 72 | 8 | 0.0 | 2.0 | 0.00 | 0.00 | 0.00 | 96 | 1014.5 |
| 20260509111736 | 72 | 23 | 3.0 | 3.0 | 0.00 | 0.00 | 0.00 | 96 | 1014.6 |
| 20260509111232 | 72 | 14 | 1.0 | 5.0 | 0.00 | 0.00 | 0.00 | 96 | 1014.7 |
| 20260509110730 | 72 | 20 | 3.0 | 3.0 | 0.00 | 0.00 | 0.00 | 96 | 1014.8 |
| 20260509110226 | 72 | 180 | 0.0 | 0.0 | 0.00 | 0.00 | 0.00 | 96 | 1014.7 |
| 20260509105725 | 72 | 180 | 0.0 | 0.0 | 0.00 | 0.00 | 0.00 | 96 | 1014.7 |
| 20260509105222 | 72 | 120 | 0.0 | 0.0 | 0.00 | 0.00 | 0.00 | 96 | 1014.7 |
| 20260509104719 | 72 | 0 | 0.0 | 2.0 | 0.00 | 0.00 | 0.00 | 96 | 1014.9 |
| 20260509104215 | 72 | 12 | 2.0 | 3.0 | 0.00 | 0.00 | 0.00 | 96 | 1014.9 |
| 20260509103714 | 72 | 254 | 0.0 | 3.0 | 0.00 | 0.00 | 0.00 | 96 | 1014.7 |
| 20260509103210 | 72 | 18 | 2.0 | 2.0 | 0.00 | 0.00 | 0.00 | 96 | 1014.9 |
| 20260509102709 | 72 | 206 | 1.0 | 3.0 | 0.00 | 0.00 | 0.00 | 96 | 1014.7 |
| 20260509102205 | 72 | 15 | 0.0 | 4.0 | 0.00 | 0.00 | 0.00 | 96 | 1014.5 |
| 20260509101702 | 72 | 4 | 2.0 | 5.0 | 0.00 | 0.00 | 0.00 | 95 | 1014.5 |
| 20260509101158 | 72 | 6 | 3.0 | 5.0 | 0.00 | 0.00 | 0.00 | 95 | 1014.4 |
| 20260509100656 | 72 | 27 | 4.0 | 4.0 | 0.00 | 0.00 | 0.00 | 95 | 1014.2 |
| 20260509100152 | 73 | 0 | 5.0 | 5.0 | 0.00 | 0.00 | 0.00 | 95 | 1014.1 |
| 20260509095650 | 72 | 10 | 3.0 | 3.0 | 0.00 | 0.00 | 0.00 | 95 | 1013.9 |
| 20260509095147 | 72 | 8 | 0.0 | 2.0 | 0.00 | 0.00 | 0.00 | 95 | 1013.6 |
| 20260509094643 | 73 | 101 | 0.0 | 3.0 | 0.00 | 0.00 | 0.00 | 95 | 1013.3 |
| 20260509094140 | 72 | 90 | 0.0 | 3.0 | 0.00 | 0.00 | 0.00 | 95 | 1013.3 |
| 20260509093639 | 72 | 126 | 1.0 | 3.0 | 0.00 | 0.00 | 0.00 | 95 | 1013.2 |
| 20260509093135 | 73 | 81 | 0.0 | 4.0 | 0.00 | 0.00 | 0.00 | 95 | 1013.0 |
| 20260509092633 | 72 | 157 | 1.0 | 3.0 | 0.02 | 0.00 | 0.00 | 95 | 1012.9 |
| 20260509092132 | 72 | 120 | 0.0 | 2.0 | 0.02 | 0.00 | 0.00 | 95 | 1013.3 |
| 20260509091629 | 72 | 75 | 1.0 | 2.0 | 0.00 | 0.00 | 0.00 | 95 | 1013.2 |
| 20260509091125 | 73 | 106 | 2.0 | 2.0 | 0.00 | 0.00 | 0.00 | 95 | 1013.1 |
| 20260509090623 | 73 | 145 | 0.0 | 1.0 | 0.00 | 0.00 | 0.00 | 95 | 1013.3 |
| 20260509090120 | 73 | 105 | 0.0 | 2.0 | 0.00 | 0.00 | 0.00 | 95 | 1013.0 |
| 20260509085618 | 72 | 195 | 0.0 | 0.0 | 0.00 | 0.00 | 0.00 | 94 | 1013.2 |
| 20260509085113 | 72 | 165 | 0.0 | 0.0 | 0.00 | 0.00 | 0.00 | 94 | 1013.0 |
| 20260509084611 | 72 | 165 | 0.0 | 1.0 | 0.00 | 0.00 | 0.00 | 94 | 1013.2 |
| 20260509084108 | 72 | 103 | 0.0 | 2.0 | 0.00 | 0.00 | 0.00 | 94 | 1013.3 |
| 20260509083605 | 73 | 175 | 0.0 | 2.0 | 0.00 | 0.00 | 0.00 | 94 | 1013.2 |
| 20260509083101 | 73 | 90 | 0.0 | 2.0 | 0.00 | 0.00 | 0.00 | 94 | 1013.3 |
| 20260509082559 | 73 | 352 | 0.0 | 3.0 | 0.00 | 0.00 | 0.00 | 94 | 1013.4 |
| 20260509082056 | 73 | 37 | 0.0 | 3.0 | 0.00 | 0.00 | 0.00 | 94 | 1013.6 |
| 20260509081553 | 73 | 97 | 1.0 | 3.0 | 0.00 | 0.00 | 0.00 | 93 | 1013.6 |
| 20260509081049 | 73 | 83 | 0.0 | 4.0 | 0.00 | 0.00 | 0.00 | 93 | 1013.6 |
| 20260509080548 | 73 | 112 | 2.0 | 5.0 | 0.00 | 0.00 | 0.00 | 93 | 1013.4 |
| 20260509080046 | 73 | 12 | 2.0 | 4.0 | 0.00 | 0.00 | 0.00 | 93 | 1013.6 |
| 20260509075542 | 73 | 8 | 0.0 | 3.0 | 0.00 | 0.00 | 0.00 | 93 | 1013.4 |
| 20260509075041 | 73 | 51 | 0.0 | 4.0 | 0.00 | 0.00 | 0.00 | 92 | 1013.4 |
| 20260509074537 | 73 | 10 | 2.0 | 2.0 | 0.00 | 0.00 | 0.00 | 92 | 1013.5 |
| 20260509074034 | 73 | 32 | 2.0 | 3.0 | 0.00 | 0.00 | 0.00 | 92 | 1013.5 |
| 20260509073530 | 73 | 94 | 3.0 | 3.0 | 0.00 | 0.00 | 0.00 | 92 | 1013.6 |
| 20260509073027 | 73 | 33 | 3.0 | 4.0 | 0.00 | 0.00 | 0.00 | 92 | 1013.4 |
| 20260509072523 | 73 | 90 | 2.0 | 4.0 | 0.00 | 0.00 | 0.00 | 91 | 1013.3 |
| 20260509072020 | 73 | 63 | 4.0 | 4.0 | 0.00 | 0.00 | 0.00 | 91 | 1013.7 |
| 20260509071517 | 74 | 99 | 0.0 | 2.0 | 0.00 | 0.00 | 0.00 | 91 | 1013.7 |
| 20260509071015 | 74 | 63 | 2.0 | 3.0 | 0.00 | 0.00 | 0.00 | 91 | 1013.7 |
| 20260509070512 | 74 | 84 | 1.0 | 3.0 | 0.00 | 0.00 | 0.00 | 91 | 1013.4 |
| 20260509070008 | 74 | 80 | 3.0 | 4.0 | 0.00 | 0.00 | 0.00 | 91 | 1013.8 |
| 20260509065503 | 74 | 98 | 1.0 | 3.0 | 0.00 | 0.00 | 0.00 | 91 | 1013.9 |
| 20260509065000 | 73 | 66 | 0.0 | 1.0 | 0.00 | 0.00 | 0.00 | 91 | 1013.8 |
| 20260509064458 | 73 | 74 | 0.0 | 1.0 | 0.00 | 0.00 | 0.00 | 91 | 1013.5 |
| 20260509063955 | 74 | 48 | 0.0 | 2.0 | 0.00 | 0.00 | 0.00 | 91 | 1013.4 |
| 20260509063451 | 74 | 90 | 0.0 | 2.0 | 0.00 | 0.00 | 0.00 | 91 | 1013.6 |
| 20260509062948 | 74 | 111 | 0.0 | 1.0 | 0.00 | 0.00 | 0.00 | 91 | 1013.3 |
| 20260509062445 | 74 | 81 | 0.0 | 3.0 | 0.00 | 0.00 | 0.00 | 91 | 1013.4 |
| 20260509061943 | 74 | 168 | 1.0 | 4.0 | 0.00 | 0.00 | 0.00 | 90 | 1013.5 |
| 20260509061440 | 74 | 180 | 2.0 | 6.0 | 0.00 | 0.00 | 0.00 | 90 | 1013.5 |
| 20260509060937 | 74 | 168 | 1.0 | 6.0 | 0.00 | 0.00 | 0.00 | 91 | 1013.4 |
| 20260509060435 | 74 | 151 | 5.0 | 6.0 | 0.00 | 0.00 | 0.00 | 90 | 1013.3 |
| 20260509055930 | 74 | 158 | 4.0 | 7.0 | 0.00 | 0.00 | 0.00 | 90 | 1013.2 |
| 20260509055425 | 74 | 145 | 5.0 | 7.0 | 0.00 | 0.00 | 0.00 | 91 | 1013.1 |
| 20260509054922 | 74 | 158 | 7.0 | 11.0 | 0.00 | 0.00 | 0.00 | 91 | 1013.2 |
| 20260509054418 | 74 | 200 | 1.0 | 5.0 | 0.00 | 0.00 | 0.00 | 91 | 1013.1 |
| 20260509053917 | 73 | 149 | 3.0 | 5.0 | 0.00 | 0.00 | 0.00 | 91 | 1013.2 |
| 20260509053415 | 73 | 155 | 4.0 | 8.0 | 0.00 | 0.00 | 0.00 | 91 | 1013.3 |
| 20260509052912 | 73 | 160 | 4.0 | 10.0 | 0.00 | 0.00 | 0.00 | 91 | 1013.1 |
| 20260509052409 | 73 | 200 | 0.0 | 6.0 | 0.00 | 0.00 | 0.00 | 90 | 1013.0 |
| 20260509051907 | 73 | 132 | 2.0 | 6.0 | 0.00 | 0.00 | 0.00 | 91 | 1012.7 |
| 20260509051405 | 73 | 114 | 4.0 | 6.0 | 0.00 | 0.00 | 0.00 | 90 | 1012.6 |
| 20260509050901 | 73 | 131 | 2.0 | 6.0 | 0.00 | 0.00 | 0.00 | 90 | 1012.4 |
| 20260509050358 | 74 | 126 | 6.0 | 7.0 | 0.00 | 0.00 | 0.00 | 90 | 1012.5 |
| 20260509045855 | 73 | 142 | 4.0 | 9.0 | 0.00 | 0.00 | 0.00 | 90 | 1012.6 |
| 20260509045352 | 73 | 90 | 4.0 | 8.0 | 0.00 | 0.00 | 0.00 | 90 | 1012.3 |
| 20260509044849 | 74 | 110 | 6.0 | 9.0 | 0.00 | 0.00 | 0.00 | 89 | 1012.3 |
| 20260509044347 | 74 | 107 | 5.0 | 6.0 | 0.00 | 0.00 | 0.00 | 89 | 1012.3 |
| 20260509043843 | 74 | 110 | 5.0 | 9.0 | 0.00 | 0.00 | 0.00 | 89 | 1012.6 |
| 20260509043339 | 74 | 139 | 2.0 | 7.0 | 0.00 | 0.00 | 0.00 | 89 | 1012.3 |
| 20260509042835 | 74 | 116 | 5.0 | 5.0 | 0.00 | 0.00 | 0.00 | 88 | 1012.8 |
| 20260509042332 | 74 | 84 | 1.0 | 9.0 | 0.00 | 0.00 | 0.00 | 88 | 1012.7 |
| 20260509041828 | 74 | 90 | 2.0 | 6.0 | 0.00 | 0.00 | 0.00 | 88 | 1012.8 |
| 20260509041325 | 74 | 139 | 2.0 | 4.0 | 0.00 | 0.00 | 0.00 | 87 | 1012.8 |
| 20260509040824 | 74 | 94 | 0.0 | 4.0 | 0.00 | 0.00 | 0.00 | 88 | 1012.8 |
| 20260509040321 | 74 | 106 | 2.0 | 4.0 | 0.00 | 0.00 | 0.00 | 87 | 1012.9 |
| 20260509035818 | 75 | 124 | 6.0 | 8.0 | 0.00 | 0.00 | 0.00 | 87 | 1012.8 |
| 20260509035315 | 74 | 213 | 4.0 | 5.0 | 0.00 | 0.00 | 0.00 | 86 | 1012.8 |
| 20260509034811 | 75 | 101 | 0.0 | 5.0 | 0.00 | 0.00 | 0.00 | 86 | 1012.8 |
| 20260509034309 | 75 | 156 | 2.0 | 5.0 | 0.00 | 0.00 | 0.00 | 86 | 1013.1 |
| 20260509033806 | 75 | 143 | 4.0 | 6.0 | 0.00 | 0.00 | 0.00 | 86 | 1012.8 |
| 20260509033303 | 75 | 118 | 5.0 | 6.0 | 0.00 | 0.00 | 0.00 | 86 | 1012.6 |
| 20260509032759 | 75 | 133 | 5.0 | 8.0 | 0.00 | 0.00 | 0.00 | 86 | 1012.6 |
| 20260509032256 | 75 | 139 | 4.0 | 7.0 | 0.00 | 0.00 | 0.00 | 86 | 1012.8 |
| 20260509031754 | 75 | 146 | 5.0 | 7.0 | 0.00 | 0.00 | 0.00 | 85 | 1012.6 |
| 20260509031251 | 76 | 143 | 5.0 | 6.0 | 0.00 | 0.00 | 0.00 | 85 | 1012.8 |
| 20260509030749 | 75 | 158 | 2.0 | 6.0 | 0.00 | 0.00 | 0.00 | 85 | 1012.7 |
| 20260509030247 | 76 | 106 | 4.0 | 5.0 | 0.00 | 0.00 | 0.00 | 84 | 1012.7 |
| 20260509025743 | 76 | 131 | 5.0 | 5.0 | 0.00 | 0.00 | 0.00 | 85 | 1012.5 |
| 20260509025239 | 76 | 176 | 2.0 | 4.0 | 0.00 | 0.00 | 0.00 | 84 | 1012.4 |
| 20260509024734 | 76 | 135 | 6.0 | 6.0 | 0.00 | 0.00 | 0.00 | 83 | 1012.5 |
| 20260509024230 | 76 | 146 | 4.0 | 5.0 | 0.00 | 0.00 | 0.00 | 84 | 1012.1 |
| 20260509023728 | 75 | 128 | 6.0 | 6.0 | 0.00 | 0.00 | 0.00 | 84 | 1012.1 |
| 20260509023225 | 76 | 156 | 6.0 | 9.0 | 0.00 | 0.00 | 0.00 | 83 | 1012.1 |
| 20260509022721 | 76 | 118 | 6.0 | 9.0 | 0.00 | 0.00 | 0.00 | 83 | 1011.9 |
| 20260509022219 | 77 | 133 | 6.0 | 7.0 | 0.00 | 0.00 | 0.00 | 82 | 1011.9 |
| 20260509021715 | 77 | 112 | 3.0 | 6.0 | 0.00 | 0.00 | 0.00 | 81 | 1012.1 |
| 20260509021213 | 77 | 157 | 3.0 | 5.0 | 0.00 | 0.00 | 0.00 | 81 | 1011.9 |
| 20260509020711 | 77 | 111 | 4.0 | 5.0 | 0.00 | 0.00 | 0.00 | 81 | 1011.7 |
| 20260509020208 | 77 | 153 | 6.0 | 8.0 | 0.00 | 0.00 | 0.00 | 81 | 1011.6 |
| 20260509015706 | 77 | 129 | 7.0 | 7.0 | 0.00 | 0.00 | 0.00 | 81 | 1011.7 |
| 20260509015204 | 77 | 129 | 3.0 | 5.0 | 0.00 | 0.00 | 0.00 | 81 | 1011.5 |
| 20260509014700 | 77 | 120 | 5.0 | 6.0 | 0.00 | 0.00 | 0.00 | 81 | 1011.6 |
| 20260509014157 | 78 | 135 | 4.0 | 6.0 | 0.00 | 0.00 | 0.00 | 81 | 1011.6 |
| 20260509013653 | 77 | 120 | 7.0 | 7.0 | 0.00 | 0.00 | 0.00 | 81 | 1011.5 |
| 20260509013149 | 77 | 129 | 4.0 | 7.0 | 0.00 | 0.00 | 0.00 | 81 | 1011.4 |
| 20260509012646 | 77 | 137 | 5.0 | 9.0 | 0.00 | 0.00 | 0.00 | 81 | 1011.2 |
| 20260509012143 | 77 | 137 | 5.0 | 9.0 | 0.00 | 0.00 | 0.00 | 81 | 1011.3 |
| 20260509011641 | 78 | 154 | 6.0 | 7.0 | 0.00 | 0.00 | 0.00 | 81 | 1011.2 |